Location: Balagbag Mahabang Kahoy
(14.1562°N, 120.9200°E)
Time: 05:41:25
(UTC+00:00)

Ariane H10+ - Pass Details

Date: 16 January 2026
Orbit: 224 x 2840 km, 6.7° (Epoch: 14 February)

Event Time Altitude Azimuth Distance (km) Brightness Sun altitude
Exits shadow 19:48:47 29° 147° (SSE) 1,544 3.8 -36.8°
Drops below altitude 10° 19:51:21 10° 123° (ESE) 2,165 5.0 -36.2°
Sets 19:53:16 0° 115° (ESE) 2,809 5.9 -35.7°
